sat.trackr.live / text

‹ back to catalog

STARLINK-34863

NORAD 66190 · 2025-243P

PAYLOAD ACTIVE UNKNOWN

§ Identity

Operator
Country
US
Launch date
2025-10-26
Launch site
AFETR
Launch vehicle
Mass (kg)
RCS (m²)

Purposes: comms

External: N2YO · Heavens-Above · Gunter

§ Orbital elements

Epoch: 2026-09-20T16:42:33.811488Z

Period
93.85 min
Inclination
53.1593°
Eccentricity
0.0001225
Mean motion
15.34403954 rev/d
Perigee alt
461.9 km
Apogee alt
463.5 km
Semi-major
6,840.8 km
B*
4.9584e-4
RAAN
57.0979°
Arg perigee
83.2647°
Mean anomaly
276.8495°
Rev number
5,054

§ Raw data

STARLINK-348631 66190U 25243P   26263.69622467  .00016415  00000+0  49584-3 0  99982 66190  53.1593  57.0979 0001225  83.2647 276.8495 15.34403954 50540

JSON: /api/v1/satellites/66190 · /tle

For live sub-satellite position, see the globe view (requires WebGL).

§ Visibility from observer

Set your observer location to see the next 7 days of passes ≥ 10°. The values pass through the URL so the page stays shareable.

No JS? Fill the form by hand. The geolocation button needs JavaScript.